Location: Newark
(7.0858°N, 171.3717°E)
Time: 09:03:34
(UTC+00:00)

S-56A Canister/Altair - Pass Details

Date: 28 November 2020
Orbit: 633 x 2499 km, 38.9° (Epoch: 27 January)

Event Time Altitude Azimuth Distance (km) Brightness Sun altitude
Rises 05:43:40 0° 235° (SW) 6,172 14.2 6.4°
Reaches altitude 10° 05:47:47 10° 237° (WSW) 5,150 14.0 5.4°
Maximum altitude 06:02:37 69° 318° (NW) 2,289 10.1 2.0°
Drops below altitude 10° 06:13:45 10° 41° (NE) 3,974 10.6 -0.5°
Sets 06:16:32 0° 44° (NE) 4,736 11.0 -1.2°
